FW8733 Weather Reports


time (UTC)temp
F
wind
direction
speed
knots
gust
knots
rain 1hr
in
rain 24hr
in
rain mn
in
humidity
%
barometer
mb
20260507230541 68 210 0.0 0.9 0.00 0.00 0.00 68 1018.8
20260507230038 68 200 1.7 1.7 0.00 0.00 0.00 68 1018.5
20260507225533 68 354 0.9 1.7 0.00 0.00 0.00 68 1019.0
20260507225030 68 247 0.0 0.0 0.00 0.00 0.00 67 1019.1
20260507224526 69 247 0.0 0.0 0.00 0.00 0.00 66 1018.9
20260507224022 69 246 0.0 0.0 0.00 0.00 0.00 70 1018.8
20260507223519 69 222 0.0 0.9 0.00 0.00 0.00 68 1019.0
20260507223016 69 232 0.0 0.0 0.00 0.00 0.00 70 1019.1
20260507222513 69 232 0.0 0.0 0.00 0.00 0.00 69 1019.2
20260507222009 69 232 0.0 0.0 0.00 0.00 0.00 67 1019.4
20260507221506 69 232 0.0 0.0 0.00 0.00 0.00 69 1019.4
20260507221002 69 232 0.9 0.9 0.00 0.00 0.00 70 1019.3
20260507220500 69 231 0.9 1.7 0.00 0.00 0.00 68 1019.5
20260507215956 69 232 0.0 0.9 0.00 0.00 0.00 67 1019.0
20260507215453 69 239 0.0 0.9 0.00 0.00 0.00 68 1019.4
20260507214950 69 227 0.0 0.0 0.00 0.00 0.00 68 1019.4
20260507214447 69 189 0.0 0.9 0.00 0.00 0.00 68 1019.4
20260507213943 69 201 0.0 0.0 0.00 0.00 0.00 69 1019.3
20260507213440 69 201 0.0 0.0 0.00 0.00 0.00 68 1019.5
20260507212937 70 201 0.0 0.0 0.00 0.00 0.00 66 1019.6
20260507212432 71 200 1.7 1.7 0.00 0.00 0.00 66 1020.0
20260507211930 72 238 0.9 0.9 0.00 0.00 0.00 62 1019.9
20260507211426 70 256 0.0 0.0 0.00 0.00 0.00 66 1019.6
20260507210923 69 243 0.0 0.0 0.00 0.00 0.00 70 1019.6
20260507210420 68 240 0.9 0.9 0.00 0.00 0.00 67 1019.6
20260507205917 68 188 0.9 4.3 0.00 0.00 0.00 70 1019.5
20260507205414 68 215 1.7 2.6 0.00 0.00 0.00 67 1019.3
20260507204910 68 218 0.0 0.0 0.00 0.00 0.00 70 1019.6
20260507204407 67 218 0.0 0.0 0.00 0.00 0.00 71 1019.6
20260507203904 67 218 0.0 0.0 0.00 0.00 0.00 72 1019.7
20260507203402 67 192 0.0 0.0 0.00 0.00 0.00 71 1020.1
20260507202858 67 188 0.9 0.9 0.00 0.00 0.00 69 1020.0
20260507202355 68 201 0.0 0.0 0.00 0.00 0.00 71 1019.9
20260507201850 68 192 1.7 2.6 0.00 0.00 0.00 71 1020.2
20260507201346 68 243 0.0 0.0 0.00 0.00 0.00 70 1020.2
20260507200842 68 229 0.0 0.0 0.00 0.00 0.00 70 1020.4
20260507200339 68 216 0.0 0.9 0.00 0.00 0.00 71 1020.5
20260507195835 68 216 0.9 0.9 0.00 0.00 0.00 68 1020.2
20260507195332 69 231 0.9 0.9 0.00 0.00 0.00 69 1020.6
20260507194830 69 216 0.0 0.9 0.00 0.00 0.00 69 1020.5
20260507194326 67 226 0.0 0.0 0.00 0.00 0.00 71 1020.5
20260507193822 68 265 1.7 1.7 0.00 0.00 0.00 70 1020.4
20260507193320 68 201 2.6 2.6 0.00 0.00 0.00 69 1020.4
20260507192815 68 209 1.7 4.3 0.00 0.00 0.00 69 1020.8
20260507192312 68 257 0.9 1.7 0.00 0.00 0.00 70 1020.9
20260507191808 68 228 0.0 0.9 0.00 0.00 0.00 71 1021.4
20260507191305 67 216 0.0 0.9 0.00 0.00 0.00 72 1021.1
20260507190802 66 217 0.0 0.0 0.00 0.00 0.00 75 1021.1
20260507190301 66 220 0.0 0.0 0.00 0.00 0.00 74 1021.1
20260507185759 65 221 0.0 0.9 0.00 0.00 0.00 74 1021.0
20260507185255 65 220 2.6 4.3 0.00 0.00 0.00 75 1021.0
20260507184752 65 221 0.9 0.9 0.00 0.00 0.00 76 1020.8
20260507184250 66 226 1.7 2.6 0.00 0.00 0.00 75 1021.0
20260507183747 65 209 0.0 0.9 0.00 0.00 0.00 77 1020.7
20260507183244 65 217 0.9 1.7 0.00 0.00 0.00 76 1020.7
20260507182741 66 175 2.6 4.3 0.00 0.00 0.00 75 1020.4
20260507182236 66 186 2.6 5.2 0.00 0.00 0.00 74 1020.9
20260507181733 66 237 0.9 0.9 0.00 0.00 0.00 75 1021.1
20260507181230 65 224 0.0 0.9 0.00 0.00 0.00 76 1021.0
20260507180726 65 197 0.9 1.7 0.00 0.00 0.00 78 1021.2
20260507180223 65 235 0.0 0.0 0.00 0.00 0.00 78 1021.1
20260507175719 65 238 0.0 0.9 0.00 0.00 0.00 79 1021.4
20260507175216 65 224 0.0 0.0 0.00 0.00 0.00 79 1020.9
20260507174713 65 196 0.9 1.7 0.00 0.00 0.00 77 1020.8
20260507174211 65 204 0.0 0.0 0.00 0.00 0.00 77 1020.9
20260507173708 66 275 0.0 0.9 0.00 0.00 0.00 77 1021.1
20260507173205 65 203 0.9 0.9 0.00 0.00 0.00 79 1021.4
20260507172702 64 207 0.0 0.9 0.00 0.00 0.00 79 1021.7
20260507172159 64 243 0.9 0.9 0.00 0.00 0.00 81 1021.2
20260507171658 63 240 0.0 0.0 0.00 0.00 0.00 83 1021.8
20260507171156 63 240 0.0 0.0 0.00 0.00 0.00 83 1021.8
20260507170653 62 237 0.0 0.0 0.00 0.00 0.00 84 1021.4
20260507170150 62 292 2.6 2.6 0.00 0.00 0.00 85 1020.8
20260507165646 61 215 0.9 0.9 0.00 0.00 0.00 87 1021.0
20260507165142 61 226 0.0 0.0 0.00 0.00 0.00 88 1020.5
20260507164638 61 149 0.0 0.9 0.00 0.00 0.00 89 1021.0
20260507164135 60 207 0.0 0.0 0.00 0.00 0.00 90 1021.2
20260507163632 60 306 2.6 2.6 0.00 0.00 0.00 90 1021.9
20260507163130 60 205 0.0 0.9 0.00 0.00 0.00 91 1021.6
20260507162626 60 278 0.9 1.7 0.00 0.00 0.00 92 1021.6
20260507162122 60 220 0.0 0.0 0.00 0.00 0.00 92 1021.9
20260507161619 60 51 0.9 1.7 0.00 0.00 0.00 91 1022.1
20260507161116 60 213 0.0 0.0 0.00 0.00 0.00 91 1022.1
20260507160612 60 226 0.9 0.9 0.00 0.00 0.00 90 1022.3
20260507160108 60 234 0.0 0.0 0.00 0.00 0.00 90 1023.3
20260507155603 59 239 0.0 0.0 0.00 0.00 0.00 90 1023.1
20260507155101 60 239 0.0 0.0 0.00 0.00 0.00 90 1023.0
20260507154558 60 261 0.0 0.9 0.00 0.00 0.00 90 1022.5
20260507154055 60 222 0.9 0.9 0.00 0.00 0.00 89 1021.4
20260507153551 60 215 1.7 2.6 0.00 0.00 0.00 89 1021.9
20260507153048 60 261 0.0 0.0 0.00 0.00 0.00 89 1022.2
20260507152544 60 224 0.9 0.9 0.00 0.00 0.00 90 1022.1
20260507152040 60 230 0.0 0.9 0.00 0.00 0.00 90 1022.3
20260507151536 60 238 0.0 0.0 0.00 0.00 0.00 90 1022.4
20260507151033 59 249 0.0 0.0 0.00 0.00 0.00 91 1022.3
20260507150530 59 195 0.0 0.0 0.00 0.00 0.00 91 1022.2
20260507150028 59 238 0.0 0.9 0.00 0.00 0.00 92 1022.4
20260507145522 59 257 0.0 0.0 0.00 0.00 0.00 92 1022.7
20260507145021 59 239 0.0 0.0 0.00 0.00 0.00 92 1022.7
20260507144517 59 231 0.0 0.0 0.00 0.00 0.00 92 1022.6
20260507144014 59 223 0.9 0.9 0.00 0.00 0.00 93 1022.6
20260507143511 59 254 0.0 0.0 0.00 0.00 0.00 93 1022.7
20260507143009 59 225 0.0 0.0 0.00 0.00 0.00 93 1022.6
20260507142504 59 207 0.9 0.9 0.00 0.00 0.00 92 1022.5
20260507142001 59 224 0.0 0.0 0.00 0.00 0.00 93 1022.2
20260507141456 59 239 0.0 0.9 0.00 0.00 0.00 93 1022.2
20260507140954 59 261 0.0 1.7 0.00 0.00 0.00 93 1022.2
20260507140450 58 258 0.9 0.9 0.00 0.00 0.00 93 1022.1
20260507135948 58 297 2.6 2.6 0.00 0.00 0.00 93 1022.3
20260507135444 59 309 0.9 0.9 0.00 0.00 0.00 93 1022.1
20260507134942 58 228 0.0 0.0 0.00 0.00 0.00 93 1022.2
20260507134438 58 234 0.0 0.0 0.00 0.00 0.00 93 1022.3
20260507133934 58 212 0.9 1.7 0.00 0.00 0.00 93 1021.8
20260507133431 59 214 0.0 0.0 0.00 0.00 0.00 93 1021.9
20260507132929 58 244 0.9 1.7 0.00 0.00 0.00 93 1021.6
20260507132425 58 306 0.9 2.6 0.00 0.00 0.00 93 1021.7
20260507131922 59 218 0.9 0.9 0.00 0.00 0.00 93 1021.2
20260507131419 58 213 0.9 0.9 0.00 0.00 0.00 94 1021.2
20260507130916 58 233 0.0 0.9 0.00 0.00 0.00 94 1021.6
20260507130413 58 232 0.0 0.0 0.00 0.00 0.00 94 1021.6
20260507125912 58 222 1.7 1.7 0.00 0.00 0.00 94 1021.5
20260507125409 58 325 1.7 4.3 0.00 0.00 0.00 93 1021.5
20260507124906 58 224 0.0 0.0 0.00 0.00 0.00 93 1021.8
20260507124402 58 216 0.9 0.9 0.00 0.00 0.00 93 1021.4
20260507123901 58 249 0.0 0.9 0.00 0.00 0.00 93 1021.4
20260507123357 58 185 0.9 1.7 0.00 0.00 0.00 93 1021.0
20260507122854 58 196 0.9 1.7 0.00 0.00 0.00 92 1021.4
20260507122349 59 226 0.0 0.9 0.00 0.00 0.00 92 1021.1
20260507121845 59 213 0.0 0.0 0.00 0.00 0.00 92 1021.4
20260507121341 58 225 0.0 0.9 0.00 0.00 0.00 92 1021.4
20260507120838 58 220 0.9 0.9 0.00 0.00 0.00 92 1021.2
20260507120334 59 197 0.0 0.9 0.00 0.00 0.00 92 1020.8
20260507115831 58 245 0.0 0.9 0.00 0.00 0.00 92 1020.7
20260507115326 59 224 0.9 1.7 0.00 0.00 0.00 92 1020.7
20260507114822 59 199 0.9 1.7 0.00 0.00 0.00 92 1020.6
20260507114320 59 237 0.0 0.0 0.00 0.00 0.00 92 1021.0
20260507113817 59 267 0.9 0.9 0.00 0.00 0.00 92 1020.4
20260507113314 59 334 0.9 0.9 0.00 0.00 0.00 92 1020.4
20260507112811 59 226 0.0 0.0 0.00 0.00 0.00 92 1020.5
20260507112308 59 242 0.0 0.9 0.00 0.00 0.00 92 1020.2
20260507111806 59 201 0.9 0.9 0.00 0.00 0.00 92 1020.0
20260507111302 59 235 0.0 0.9 0.00 0.00 0.00 91 1020.3
20260507110758 59 216 0.9 0.9 0.00 0.00 0.00 92 1020.4
20260507110255 59 214 0.0 0.0 0.00 0.00 0.00 92 1020.2
20260507105752 59 225 0.9 0.9 0.00 0.00 0.00 92 1020.6
20260507105248 59 235 0.0 0.0 0.00 0.00 0.00 91 1020.3
20260507104745 59 212 0.9 0.9 0.00 0.00 0.00 91 1020.3
20260507104242 59 214 0.9 0.9 0.00 0.00 0.00 92 1020.5
20260507103738 59 223 0.9 0.9 0.00 0.00 0.00 92 1020.6
20260507103234 59 254 0.0 0.0 0.00 0.00 0.00 92 1020.4
20260507102731 59 227 0.9 0.9 0.00 0.00 0.00 91 1020.3
20260507102228 59 229 0.9 0.9 0.00 0.00 0.00 91 1019.9
20260507101723 60 213 0.0 0.0 0.00 0.00 0.00 91 1019.9
20260507101219 59 219 0.9 0.9 0.00 0.00 0.00 91 1019.7
20260507100716 60 255 0.9 0.9 0.00 0.00 0.00 91 1020.0
20260507100215 60 221 0.0 0.0 0.00 0.00 0.00 91 1019.8
20260507095712 60 240 0.0 0.0 0.00 0.00 0.00 91 1019.8
20260507095209 60 265 0.9 1.7 0.00 0.00 0.00 91 1019.7
20260507094705 60 215 0.0 0.0 0.00 0.00 0.00 91 1019.8
20260507094202 60 224 0.0 0.9 0.00 0.00 0.00 91 1019.7
20260507093659 60 258 0.0 0.0 0.00 0.00 0.00 91 1019.9
20260507093158 60 238 0.0 0.0 0.00 0.00 0.00 91 1019.8
20260507092655 60 236 0.0 0.0 0.00 0.00 0.00 90 1019.6
20260507092151 60 244 0.0 0.0 0.00 0.00 0.00 91 1019.8
20260507091648 60 244 0.0 0.0 0.00 0.00 0.00 90 1019.6
20260507091144 60 260 0.0 0.9 0.00 0.00 0.00 90 1019.6
20260507090639 60 259 0.0 0.0 0.00 0.00 0.00 90 1019.9
20260507090137 60 238 0.0 0.0 0.00 0.00 0.00 90 1019.6
20260507085634 60 245 0.0 0.0 0.00 0.00 0.00 90 1019.3
20260507085130 60 210 0.0 0.0 0.00 0.00 0.00 90 1019.2
20260507084627 60 244 0.0 0.0 0.00 0.00 0.00 90 1019.3
20260507084124 60 220 0.0 0.9 0.00 0.00 0.00 90 1019.3
20260507083621 60 201 0.0 0.0 0.00 0.00 0.00 90 1018.9
20260507083118 60 200 0.0 0.0 0.00 0.00 0.00 90 1019.1
20260507082614 60 241 0.0 0.0 0.00 0.00 0.00 90 1019.3
20260507082110 60 241 0.0 0.0 0.00 0.00 0.00 90 1019.1
20260507081607 60 241 0.0 0.9 0.00 0.00 0.00 89 1019.0
20260507081104 60 242 0.0 0.0 0.00 0.00 0.00 89 1019.1
20260507080600 60 243 0.0 0.0 0.00 0.00 0.00 88 1018.8
20260507080056 60 243 0.9 0.9 0.00 0.00 0.00 88 1018.9
20260507075551 61 214 0.0 0.0 0.00 0.00 0.00 88 1018.8
20260507075048 61 213 0.9 0.9 0.00 0.00 0.00 88 1018.9
20260507074545 60 245 0.0 0.0 0.00 0.00 0.00 88 1018.6
20260507074043 61 197 0.0 0.0 0.00 0.00 0.00 88 1018.7
20260507073539 61 219 0.0 0.0 0.00 0.00 0.00 88 1018.7
20260507073036 61 223 0.0 0.0 0.00 0.00 0.00 87 1018.8
20260507072533 61 196 0.0 0.0 0.00 0.00 0.00 87 1018.9
20260507072030 61 208 0.9 0.9 0.00 0.00 0.00 87 1018.8
20260507071527 61 175 3.5 4.3 0.00 0.00 0.00 87 1019.0
20260507071024 61 249 0.9 0.9 0.00 0.00 0.00 87 1018.6
20260507070521 61 199 0.0 0.9 0.00 0.00 0.00 87 1018.4
20260507070018 61 202 0.0 0.0 0.00 0.00 0.00 87 1018.6
20260507065514 61 207 0.0 0.0 0.00 0.00 0.00 87 1018.9
20260507065012 61 217 0.9 0.9 0.00 0.00 0.00 87 1018.7
20260507064509 61 226 0.0 0.9 0.00 0.00 0.00 87 1018.4
20260507064008 61 264 0.0 0.0 0.00 0.00 0.00 87 1018.6
20260507063504 61 182 3.5 4.3 0.00 0.00 0.00 87 1018.5
20260507063002 61 239 0.0 0.9 0.00 0.00 0.00 87 1018.5
20260507062458 61 203 0.0 0.0 0.00 0.00 0.00 87 1018.5
20260507061956 62 217 0.0 0.0 0.00 0.00 0.00 87 1018.2
20260507061453 62 234 0.0 0.0 0.00 0.00 0.00 87 1018.6
20260507060952 62 234 0.0 0.0 0.00 0.00 0.00 86 1018.9
20260507060448 62 218 0.0 0.9 0.00 0.00 0.00 86 1018.9
20260507055945 62 218 0.9 1.7 0.00 0.00 0.00 86 1018.3
20260507055440 62 203 0.9 1.7 0.00 0.00 0.00 86 1018.6
20260507054937 62 183 1.7 1.7 0.00 0.00 0.00 86 1019.0
20260507054433 62 211 0.0 0.0 0.00 0.00 0.00 85 1018.7
20260507053931 62 207 1.7 2.6 0.00 0.00 0.00 85 1018.9
20260507053428 62 174 1.7 2.6 0.00 0.00 0.00 85 1018.6
20260507052927 62 215 1.7 2.6 0.00 0.00 0.00 86 1018.5
20260507052424 62 205 0.0 0.0 0.00 0.00 0.00 85 1018.6
20260507051920 62 207 0.0 0.9 0.00 0.00 0.00 86 1018.2
20260507051418 62 211 1.7 2.6 0.00 0.00 0.00 86 1018.5
20260507050915 62 214 0.9 1.7 0.00 0.00 0.00 86 1018.4
20260507050411 62 234 0.0 0.0 0.00 0.00 0.00 86 1018.4
20260507045908 62 222 0.0 0.9 0.00 0.00 0.00 86 1018.2
20260507045405 62 206 0.9 2.6 0.00 0.00 0.00 87 1018.4
20260507044902 62 216 0.0 0.0 0.00 0.00 0.00 87 1018.5
20260507044359 62 220 0.0 0.0 0.00 0.00 0.00 88 1018.5
20260507043855 62 207 0.0 0.0 0.00 0.00 0.00 88 1018.5
20260507043351 62 235 0.0 0.0 0.00 0.00 0.00 88 1018.5
20260507042848 62 244 0.0 0.0 0.00 0.00 0.00 88 1018.7
20260507042344 62 244 0.0 0.0 0.00 0.00 0.00 88 1018.5
20260507041840 62 245 0.0 0.0 0.00 0.00 0.00 88 1018.6
20260507041337 62 245 0.0 0.0 0.00 0.00 0.00 88 1018.5
20260507040835 62 247 0.9 1.7 0.00 0.00 0.00 89 1018.2
20260507040330 62 215 0.9 0.9 0.00 0.00 0.00 88 1018.3
20260507035826 62 195 2.6 2.6 0.00 0.00 0.00 88 1018.6
20260507035322 62 245 0.0 0.0 0.00 0.00 0.00 88 1018.6
20260507034820 62 245 0.0 0.0 0.00 0.00 0.00 88 1018.6
20260507034316 62 245 0.0 0.0 0.00 0.00 0.00 88 1018.7
20260507033815 62 245 1.7 1.7 0.00 0.00 0.00 88 1018.7
20260507033312 62 245 0.0 0.0 0.00 0.00 0.00 87 1018.6
20260507032809 62 246 0.0 0.9 0.00 0.00 0.00 87 1018.7
20260507032306 62 218 0.0 0.0 0.00 0.00 0.00 87 1018.3
20260507031802 63 232 0.0 0.0 0.00 0.00 0.00 87 1018.3
20260507031259 63 199 0.0 0.0 0.00 0.00 0.00 87 1017.9
20260507030755 63 246 0.0 0.9 0.00 0.00 0.00 87 1018.3
20260507030253 63 246 0.0 0.0 0.00 0.00 0.00 86 1018.1
20260507025750 63 224 0.0 0.0 0.00 0.00 0.00 87 1018.3
20260507025247 63 244 0.0 0.9 0.00 0.00 0.00 87 1018.1
20260507024745 63 244 0.0 0.0 0.00 0.00 0.00 87 1018.0
20260507024242 63 244 0.0 0.9 0.00 0.00 0.00 87 1018.1
20260507023737 63 212 0.0 0.0 0.00 0.00 0.00 88 1018.1
20260507023235 63 213 0.0 0.0 0.00 0.00 0.00 88 1018.0
20260507022732 63 245 0.0 0.0 0.00 0.00 0.00 87 1017.8
20260507022227 63 258 0.0 0.9 0.00 0.00 0.00 87 1017.8
20260507021724 63 245 0.0 0.0 0.00 0.00 0.00 87 1017.8
20260507021219 63 222 0.0 0.0 0.00 0.00 0.00 87 1017.8
20260507020718 63 199 0.9 1.7 0.00 0.00 0.00 87 1017.6
20260507020214 63 245 0.0 0.0 0.00 0.00 0.00 88 1017.4
20260507015712 63 245 0.0 0.0 0.00 0.00 0.00 88 1017.4
20260507015209 63 246 0.0 0.0 0.00 0.00 0.00 88 1017.4
20260507014706 63 246 0.0 0.0 0.00 0.00 0.00 87 1017.2
20260507014202 63 246 0.0 0.0 0.00 0.00 0.00 87 1017.1
20260507013659 63 245 0.0 0.0 0.00 0.00 0.00 87 1017.1
20260507013156 63 245 0.0 0.0 0.00 0.00 0.00 87 1017.1
20260507012654 63 245 0.0 0.0 0.00 0.00 0.00 87 1016.8
20260507012149 63 245 0.0 0.0 0.00 0.00 0.00 87 1016.7
20260507011647 63 245 0.0 0.0 0.00 0.00 0.00 87 1016.2
20260507011143 63 249 0.0 0.9 0.00 0.00 0.00 87 1016.5
20260507010638 63 249 0.0 0.0 0.00 0.00 0.00 86 1016.4
20260507010134 64 246 0.0 0.0 0.00 0.00 0.00 86 1016.4
20260507005631 64 246 0.0 0.0 0.00 0.00 0.00 86 1016.6
20260507005127 64 200 0.0 0.0 0.00 0.00 0.00 86 1016.5
20260507004624 64 200 0.0 0.9 0.00 0.00 0.00 86 1016.6
20260507004122 64 229 0.9 0.9 0.00 0.00 0.00 86 1016.4
20260507003618 64 230 0.0 0.9 0.00 0.00 0.00 85 1016.2
20260507003113 64 229 0.0 0.0 0.00 0.00 0.00 85 1015.9
20260507002610 64 217 0.0 0.0 0.00 0.00 0.00 86 1016.1
20260507002105 64 217 0.0 0.0 0.00 0.00 0.00 85 1015.9
20260507001603 64 236 0.0 0.0 0.00 0.00 0.00 85 1015.9
20260507001100 64 217 0.0 0.9 0.00 0.00 0.00 85 1016.2
20260507000556 64 229 0.0 0.0 0.00 0.00 0.00 85 1016.0
20260507000052 64 242 0.0 0.9 0.00 0.00 0.00 86 1016.0
20260506235549 64 243 0.0 0.9 0.00 0.00 0.00 86 1016.2
20260506235044 64 243 0.0 0.9 0.00 0.00 0.00 86 1016.1
20260506234542 64 244 0.9 1.7 0.00 0.00 0.00 85 1015.8
20260506234039 64 209 0.0 0.0 0.00 0.00 0.00 85 1016.1
20260506233536 64 252 0.0 0.0 0.00 0.00 0.00 85 1016.3
20260506233033 64 214 0.0 0.0 0.00 0.00 0.00 85 1016.0
20260506232529 64 214 0.0 0.0 0.00 0.00 0.00 85 1015.6
20260506232024 64 214 0.9 0.9 0.00 0.00 0.00 84 1016.0
20260506231522 64 243 0.0 0.0 0.00 0.00 0.00 85 1015.8
20260506231020 64 244 0.0 0.0 0.00 0.00 0.00 85 1015.8